QPF
0.00 0.00 0.00 0.00 0.00 0.00 0.00 0.00 0.00 0.00 0.00 0.00 0.00 0.00 0.00 0.00 0.00 0.00 0.00 0.00 0.00 0.00 0.00 0.00 0.00 0.00 0.00 0.00 0.00 0.00 0.02 0.01 0.00 0.00 0.00 0.00 0.00 0.00 0.00 0.00 0.00 0.00 0.00 0.00
0.00 0.00 0.00 0.00 0.00 0.00 0.00 0.00 0.00 0.00 0.00 0.00 0.00 0.00 0.00 0.00 0.00 0.00 0.00 0.00 0.00 0.00 0.00 0.00 0.00 0.00 0.00 0.00 0.00 0.00 0.01 0.01 0.01 0.01 0.02 0.02 0.02 0.02 0.03 0.02 0.01 0.02 0.01 0.01
0.00 0.00 0.00 0.00 0.00 0.00 0.00 0.00 0.00 0.00 0.00 0.00 0.00 0.00 0.00 0.00 0.00 0.00 0.00 0.00 0.00 0.00 0.00 0.00 0.00 0.00 0.00 0.00 0.00 0.00 0.00 0.00 0.00 0.01 0.01 0.02 0.04 0.05 0.05 0.04 0.03 0.04 0.04 0.02
0.00 0.00 0.00 0.00 0.00 0.00 0.00 0.00 0.00 0.00 0.00 0.00 0.00 0.00 0.00 0.00 0.00 0.00 0.00 0.00 0.00 0.00 0.00 0.00 0.00 0.00 0.00 0.00 0.00 0.00 0.00 0.00 0.01 0.01 0.02 0.02 0.02 0.03 0.03 0.04 0.05 0.05 0.04 0.03
0.00 0.00 0.00 0.00 0.00 0.00 0.00 0.00 0.00 0.00 0.00 0.00 0.00 0.00 0.00 0.00 0.00 0.00 0.00 0.00 0.00 0.00 0.00 0.00 0.00 0.00 0.00 0.00 0.00 0.01 0.01 0.02 0.02 0.03 0.03 0.03 0.02 0.02 0.02 0.04 0.03 0.03 0.02 0.02
0.00 0.00 0.00 0.00 0.00 0.00 0.00 0.00 0.00 0.00 0.00 0.00 0.00 0.00 0.00 0.00 0.00 0.00 0.00 0.00 0.00 0.00 0.00 0.00 0.00 0.00 0.01 0.01 0.02 0.03 0.04 0.05 0.05 0.05 0.04 0.03 0.02 0.01 0.01 0.01 0.02 0.01 0.01 0.01
0.00 0.00 0.00 0.00 0.00 0.00 0.00 0.00 0.00 0.00 0.00 0.00 0.00 0.00 0.00 0.00 0.00 0.00 0.00 0.00 0.00 0.00 0.00 0.00 0.00 0.01 0.03 0.04 0.05 0.05 0.05 0.06 0.05 0.04 0.02 0.02 0.01 0.01 0.01 0.00 0.00 0.00 0.00 0.01
0.00 0.00 0.00 0.00 0.00 0.00 0.00 0.00 0.00 0.00 0.00 0.00 0.00 0.00 0.00 0.00 0.00 0.00 0.00 0.00 0.00 0.00 0.00 0.00 0.01 0.03 0.04 0.04 0.04 0.04 0.04 0.04 0.02 0.02 0.01 0.01 0.00 0.00 0.00 0.00 0.00 0.01 0.01 0.01
0.00 0.00 0.00 0.00 0.00 0.00 0.00 0.00 0.00 0.00 0.00 0.00 0.00 0.00 0.00 0.00 0.00 0.00 0.00 0.00 0.00 0.00 0.01 0.01 0.02 0.04 0.07 0.07 0.06 0.05 0.04 0.03 0.03 0.02 0.02 0.02 0.01 0.01 0.01 0.01 0.01 0.02 0.02 0.01
0.00 0.00 0.00 0.00 0.00 0.00 0.00 0.00 0.00 0.00 0.00 0.00 0.00 0.00 0.00 0.00 0.00 0.00 0.00 0.00 0.01 0.01 0.02 0.03 0.04 0.06 0.09 0.11 0.10 0.09 0.06 0.05 0.04 0.04 0.03 0.03 0.02 0.02 0.02 0.02 0.03 0.03 0.03 0.02
0.00 0.00 0.00 0.00 0.00 0.00 0.00 0.00 0.00 0.00 0.00 0.00 0.00 0.00 0.00 0.00 0.00 0.00 0.00 0.01 0.01 0.03 0.04 0.04 0.05 0.06 0.08 0.10 0.11 0.10 0.08 0.06 0.04 0.03 0.02 0.02 0.02 0.01 0.02 0.03 0.04 0.05 0.05 0.03
0.00 0.00 0.00 0.00 0.00 0.00 0.00 0.00 0.00 0.00 0.00 0.00 0.00 0.00 0.00 0.00 0.00 0.00 0.01 0.02 0.03 0.03 0.03 0.04 0.04 0.04 0.04 0.04 0.07 0.09 0.09 0.06 0.05 0.04 0.04 0.03 0.02 0.02 0.02 0.02 0.04 0.06 0.09 0.05
0.00 0.00 0.00 0.00 0.00 0.00 0.00 0.00 0.00 0.00 0.00 0.00 0.00 0.00 0.00 0.00 0.00 0.00 0.03 0.04 0.03 0.03 0.03 0.02 0.02 0.01 0.01 0.02 0.05 0.08 0.08 0.08 0.07 0.05 0.04 0.03 0.03 0.03 0.05 0.05 0.05 0.06 0.12 0.10
0.00 0.00 0.00 0.00 0.00 0.00 0.00 0.00 0.00 0.00 0.00 0.00 0.00 0.00 0.00 0.00 0.00 0.01 0.04 0.03 0.02 0.02 0.02 0.01 0.00 0.00 0.01 0.02 0.05 0.07 0.08 0.09 0.07 0.05 0.04 0.04 0.02 0.01 0.02 0.05 0.09 0.08 0.09 0.09
0.00 0.00 0.00 0.00 0.00 0.00 0.00 0.00 0.00 0.00 0.00 0.00 0.00 0.00 0.00 0.00 0.00 0.02 0.03 0.02 0.02 0.02 0.01 0.00 0.00 0.00 0.00 0.02 0.05 0.06 0.06 0.05 0.04 0.04 0.05 0.04 0.02 0.01 0.01 0.03 0.05 0.07 0.04 0.03
0.00 0.00 0.00 0.00 0.00 0.00 0.00 0.00 0.00 0.00 0.00 0.00 0.00 0.00 0.00 0.00 0.00 0.01 0.02 0.02 0.02 0.02 0.01 0.01 0.00 0.00 0.00 0.01 0.03 0.04 0.03 0.02 0.01 0.00 0.01 0.01 0.01 0.01 0.01 0.02 0.03 0.06 0.03 0.01
0.00 0.00 0.00 0.00 0.00 0.00 0.00 0.00 0.00 0.00 0.00 0.00 0.00 0.00 0.00 0.00 0.00 0.01 0.01 0.02 0.01 0.01 0.01 0.00 0.00 0.00 0.01 0.01 0.03 0.05 0.03 0.02 0.01 0.00 0.00 0.01 0.01 0.01 0.01 0.02 0.06 0.07 0.04 0.00
0.00 0.00 0.00 0.00 0.00 0.00 0.00 0.00 0.00 0.00 0.00 0.00 0.00 0.00 0.00 0.00 0.01 0.01 0.02 0.02 0.01 0.01 0.00 0.00 0.01 0.01 0.01 0.01 0.01 0.04 0.02 0.01 0.02 0.02 0.01 0.00 0.00 0.01 0.01 0.02 0.04 0.05 0.03 0.01
0.00 0.00 0.00 0.00 0.00 0.00 0.00 0.00 0.00 0.00 0.00 0.00 0.00 0.00 0.00 0.00 0.01 0.01 0.01 0.03 0.03 0.03 0.01 0.00 0.01 0.01 0.02 0.01 0.01 0.02 0.02 0.01 0.01 0.02 0.02 0.01 0.01 0.01 0.01 0.02 0.03 0.03 0.01 0.00
0.00 0.00 0.00 0.00 0.00 0.00 0.00 0.00 0.00 0.00 0.00 0.00 0.00 0.00 0.00 0.00 0.01 0.01 0.01 0.02 0.03 0.03 0.02 0.01 0.01 0.01 0.02 0.03 0.03 0.03 0.04 0.02 0.01 0.01 0.01 0.02 0.02 0.01 0.01 0.02 0.02 0.02 0.01 0.00
0.00 0.00 0.00 0.00 0.00 0.00 0.00 0.00 0.00 0.00 0.00 0.00 0.00 0.00 0.00 0.00 0.00 0.01 0.01 0.01 0.01 0.01 0.02 0.02 0.01 0.01 0.01 0.03 0.05 0.06 0.09 0.08 0.05 0.02 0.01 0.02 0.02 0.01 0.01 0.01 0.01 0.01 0.00 0.00
0.00 0.00 0.00 0.00 0.00 0.00 0.00 0.00 0.00 0.00 0.00 0.00 0.00 0.00 0.00 0.00 0.00 0.00 0.00 0.01 0.01 0.02 0.01 0.01 0.01 0.01 0.01 0.02 0.03 0.05 0.07 0.11 0.11 0.09 0.06 0.03 0.01 0.00 0.00 0.00 0.00 0.00 0.00 0.00
0.00 0.00 0.00 0.00 0.00 0.00 0.00 0.00 0.00 0.00 0.00 0.00 0.00 0.00 0.00 0.01 0.01 0.00 0.00 0.00 0.00 0.01 0.01 0.01 0.01 0.01 0.01 0.01 0.02 0.03 0.03 0.04 0.05 0.05 0.05 0.05 0.03 0.01 0.00 0.00 0.00 0.00 0.00 0.00
0.00 0.00 0.00 0.00 0.00 0.00 0.00 0.00 0.00 0.00 0.00 0.00 0.00 0.00 0.00 0.00 0.00 0.00 0.01 0.01 0.01 0.00 0.00 0.01 0.01 0.00 0.01 0.02 0.02 0.02 0.02 0.02 0.01 0.01 0.01 0.01 0.01 0.00 0.00 0.00 0.00 0.00 0.00 0.00
0.00 0.00 0.00 0.00 0.00 0.00 0.00 0.00 0.00 0.00 0.00 0.00 0.00 0.00 0.00 0.00 0.00 0.00 0.00 0.00 0.00 0.00 0.00 0.00 0.00 0.00 0.00 0.01 0.01 0.01 0.03 0.04 0.03 0.01 0.02 0.03 0.04 0.03 0.02 0.02 0.02 0.01 0.00 0.00
0.00 0.00 0.00 0.00 0.00 0.00 0.00 0.00 0.00 0.00 0.00 0.00 0.00 0.00 0.00 0.00 0.00 0.00 0.00 0.00 0.00 0.00 0.00 0.00 0.00 0.00 0.00 0.00 0.00 0.00 0.02 0.06 0.09 0.08 0.07 0.08 0.08 0.07 0.05 0.04 0.05 0.04 0.02 0.01
0.00 0.00 0.00 0.00 0.00 0.00 0.00 0.00 0.00 0.00 0.00 0.00 0.00 0.00 0.00 0.00 0.00 0.00 0.00 0.00 0.00 0.00 0.00 0.00 0.00 0.00 0.00 0.00 0.00 0.01 0.02 0.05 0.10 0.19 0.33 0.40 0.23 0.09 0.06 0.06 0.05 0.05 0.05 0.02
MSLP
1015.11 1015.39 1015.70 1016.02 1016.36 1016.71 1017.03 1017.29 1017.48 1017.57 1017.55 1017.42 1017.18 1016.86 1016.46 1016.00 1015.51 1014.98 1014.43 1013.86 1013.27 1012.67 1012.06 1011.45 1010.87 1010.31 1009.79 1009.33 1008.91 1008.54 1008.21 1007.93 1007.69 1007.49 1007.34 1007.24 1007.20 1007.20 1007.25 1007.33 1007.42 1007.50 1007.55 1007.56
1015.83 1016.16 1016.45 1016.70 1016.92 1017.12 1017.28 1017.39 1017.46 1017.46 1017.38 1017.23 1017.00 1016.69 1016.30 1015.85 1015.33 1014.77 1014.16 1013.52 1012.87 1012.21 1011.56 1010.94 1010.35 1009.80 1009.30 1008.83 1008.40 1008.00 1007.63 1007.29 1006.98 1006.72 1006.51 1006.37 1006.31 1006.32 1006.39 1006.51 1006.65 1006.79 1006.89 1006.94
1016.53 1016.87 1017.13 1017.31 1017.44 1017.50 1017.52 1017.50 1017.45 1017.35 1017.21 1017.01 1016.74 1016.41 1016.00 1015.52 1014.97 1014.36 1013.70 1013.01 1012.31 1011.62 1010.96 1010.34 1009.77 1009.25 1008.77 1008.32 1007.89 1007.47 1007.07 1006.69 1006.33 1006.01 1005.76 1005.58 1005.50 1005.50 1005.58 1005.72 1005.89 1006.06 1006.19 1006.26
1017.14 1017.47 1017.68 1017.80 1017.83 1017.79 1017.69 1017.56 1017.39 1017.20 1016.98 1016.71 1016.40 1016.02 1015.57 1015.05 1014.45 1013.80 1013.10 1012.37 1011.65 1010.95 1010.30 1009.70 1009.15 1008.66 1008.21 1007.78 1007.37 1006.95 1006.53 1006.12 1005.73 1005.39 1005.10 1004.90 1004.80 1004.79 1004.87 1005.01 1005.18 1005.34 1005.48 1005.55
1017.63 1017.90 1018.05 1018.10 1018.04 1017.91 1017.72 1017.49 1017.24 1016.96 1016.66 1016.34 1015.97 1015.54 1015.05 1014.48 1013.85 1013.16 1012.44 1011.70 1010.97 1010.28 1009.64 1009.06 1008.54 1008.08 1007.65 1007.24 1006.84 1006.43 1006.02 1005.60 1005.20 1004.84 1004.54 1004.33 1004.21 1004.18 1004.24 1004.36 1004.51 1004.65 1004.76 1004.81
1017.94 1018.12 1018.19 1018.16 1018.03 1017.82 1017.56 1017.27 1016.95 1016.61 1016.25 1015.87 1015.46 1015.00 1014.47 1013.89 1013.24 1012.54 1011.81 1011.08 1010.36 1009.68 1009.05 1008.49 1007.99 1007.54 1007.12 1006.72 1006.33 1005.92 1005.50 1005.09 1004.69 1004.33 1004.03 1003.81 1003.68 1003.64 1003.67 1003.75 1003.86 1003.96 1004.03 1004.05
1018.02 1018.10 1018.08 1017.98 1017.79 1017.53 1017.22 1016.88 1016.52 1016.14 1015.76 1015.35 1014.92 1014.44 1013.91 1013.32 1012.69 1012.01 1011.30 1010.58 1009.88 1009.22 1008.60 1008.04 1007.54 1007.08 1006.65 1006.23 1005.82 1005.41 1004.99 1004.57 1004.18 1003.83 1003.53 1003.30 1003.16 1003.09 1003.09 1003.13 1003.19 1003.25 1003.28 1003.27
1017.87 1017.85 1017.75 1017.58 1017.34 1017.05 1016.72 1016.36 1015.99 1015.61 1015.21 1014.81 1014.37 1013.91 1013.40 1012.84 1012.24 1011.60 1010.93 1010.26 1009.58 1008.93 1008.32 1007.74 1007.21 1006.71 1006.24 1005.79 1005.34 1004.90 1004.46 1004.04 1003.64 1003.29 1002.99 1002.76 1002.60 1002.51 1002.47 1002.47 1002.49 1002.50 1002.51 1002.48
1017.50 1017.39 1017.23 1017.02 1016.76 1016.46 1016.13 1015.78 1015.42 1015.05 1014.68 1014.29 1013.88 1013.45 1012.98 1012.47 1011.93 1011.34 1010.73 1010.09 1009.44 1008.80 1008.18 1007.58 1007.00 1006.44 1005.90 1005.38 1004.88 1004.39 1003.92 1003.48 1003.07 1002.71 1002.41 1002.17 1001.99 1001.87 1001.80 1001.76 1001.74 1001.73 1001.72 1001.70
1016.95 1016.79 1016.59 1016.37 1016.11 1015.83 1015.53 1015.21 1014.88 1014.54 1014.19 1013.83 1013.46 1013.07 1012.66 1012.21 1011.72 1011.20 1010.64 1010.04 1009.42 1008.79 1008.14 1007.49 1006.85 1006.22 1005.61 1005.01 1004.44 1003.89 1003.38 1002.91 1002.48 1002.11 1001.80 1001.55 1001.35 1001.21 1001.10 1001.04 1001.00 1000.97 1000.97 1000.98
1016.27 1016.09 1015.91 1015.70 1015.49 1015.25 1014.99 1014.71 1014.42 1014.12 1013.80 1013.48 1013.14 1012.79 1012.42 1012.02 1011.59 1011.12 1010.60 1010.04 1009.44 1008.80 1008.13 1007.44 1006.74 1006.03 1005.33 1004.66 1004.01 1003.41 1002.85 1002.35 1001.91 1001.53 1001.21 1000.95 1000.74 1000.57 1000.45 1000.36 1000.31 1000.29 1000.30 1000.35
1015.52 1015.37 1015.23 1015.08 1014.92 1014.75 1014.56 1014.34 1014.09 1013.82 1013.54 1013.24 1012.93 1012.60 1012.25 1011.89 1011.49 1011.05 1010.57 1010.03 1009.44 1008.79 1008.10 1007.36 1006.60 1005.82 1005.06 1004.31 1003.61 1002.96 1002.38 1001.86 1001.40 1001.02 1000.70 1000.44 1000.22 1000.05 999.92 999.83 999.77 999.76 999.80 999.89
1014.76 1014.67 1014.60 1014.53 1014.46 1014.37 1014.24 1014.08 1013.89 1013.65 1013.39 1013.10 1012.79 1012.47 1012.14 1011.78 1011.39 1010.97 1010.50 1009.97 1009.37 1008.71 1007.99 1007.21 1006.41 1005.59 1004.77 1003.99 1003.25 1002.58 1001.98 1001.45 1001.01 1000.64 1000.33 1000.08 999.88 999.71 999.58 999.48 999.43 999.43 999.49 999.60
1014.02 1014.01 1014.03 1014.06 1014.08 1014.08 1014.03 1013.94 1013.79 1013.58 1013.33 1013.05 1012.73 1012.40 1012.05 1011.68 1011.28 1010.85 1010.37 1009.83 1009.22 1008.54 1007.80 1007.00 1006.16 1005.31 1004.48 1003.67 1002.93 1002.26 1001.67 1001.17 1000.75 1000.41 1000.13 999.91 999.73 999.57 999.46 999.37 999.32 999.33 999.39 999.52
1013.34 1013.41 1013.52 1013.65 1013.77 1013.86 1013.89 1013.86 1013.75 1013.57 1013.34 1013.05 1012.72 1012.37 1011.99 1011.60 1011.17 1010.72 1010.21 1009.65 1009.02 1008.32 1007.56 1006.74 1005.89 1005.03 1004.19 1003.39 1002.66 1002.01 1001.45 1000.99 1000.62 1000.32 1000.09 999.90 999.75 999.63 999.53 999.46 999.42 999.43 999.49 999.61
1012.71 1012.86 1013.05 1013.27 1013.48 1013.65 1013.76 1013.79 1013.73 1013.58 1013.36 1013.07 1012.74 1012.36 1011.96 1011.54 1011.08 1010.60 1010.06 1009.47 1008.81 1008.09 1007.30 1006.47 1005.62 1004.76 1003.92 1003.13 1002.43 1001.81 1001.30 1000.88 1000.56 1000.32 1000.14 1000.01 999.90 999.82 999.75 999.70 999.67 999.67 999.72 999.82
1012.15 1012.36 1012.62 1012.91 1013.20 1013.44 1013.61 1013.69 1013.68 1013.56 1013.37 1013.09 1012.76 1012.38 1011.96 1011.51 1011.03 1010.51 1009.95 1009.33 1008.64 1007.89 1007.09 1006.24 1005.38 1004.52 1003.69 1002.92 1002.23 1001.65 1001.17 1000.80 1000.53 1000.34 1000.22 1000.14 1000.08 1000.04 1000.01 999.99 999.98 999.99 1000.03 1000.10
1011.66 1011.91 1012.22 1012.57 1012.90 1013.19 1013.41 1013.54 1013.57 1013.50 1013.33 1013.08 1012.77 1012.39 1011.98 1011.53 1011.03 1010.49 1009.91 1009.26 1008.54 1007.77 1006.94 1006.08 1005.20 1004.33 1003.50 1002.74 1002.07 1001.50 1001.05 1000.71 1000.47 1000.32 1000.24 1000.21 1000.20 1000.21 1000.22 1000.24 1000.25 1000.28 1000.32 1000.38
1011.25 1011.52 1011.87 1012.24 1012.60 1012.92 1013.18 1013.34 1013.41 1013.38 1013.25 1013.04 1012.75 1012.41 1012.02 1011.57 1011.08 1010.54 1009.94 1009.27 1008.54 1007.74 1006.89 1006.00 1005.10 1004.21 1003.37 1002.60 1001.92 1001.35 1000.91 1000.58 1000.35 1000.23 1000.18 1000.18 1000.21 1000.26 1000.32 1000.37 1000.43 1000.48 1000.54 1000.60
1010.92 1011.22 1011.57 1011.95 1012.32 1012.65 1012.92 1013.11 1013.21 1013.21 1013.12 1012.96 1012.72 1012.42 1012.06 1011.64 1011.17 1010.63 1010.03 1009.36 1008.61 1007.80 1006.92 1006.01 1005.09 1004.18 1003.31 1002.51 1001.81 1001.23 1000.76 1000.42 1000.19 1000.06 1000.01 1000.03 1000.09 1000.17 1000.27 1000.37 1000.46 1000.55 1000.64 1000.73
1010.69 1011.00 1011.35 1011.73 1012.09 1012.42 1012.69 1012.89 1013.00 1013.03 1012.99 1012.86 1012.67 1012.42 1012.10 1011.72 1011.28 1010.76 1010.17 1009.50 1008.75 1007.92 1007.04 1006.11 1005.16 1004.23 1003.33 1002.51 1001.77 1001.15 1000.65 1000.28 1000.02 999.87 999.81 999.82 999.89 999.99 1000.11 1000.24 1000.38 1000.51 1000.63 1000.75
1010.53 1010.86 1011.22 1011.59 1011.94 1012.25 1012.51 1012.71 1012.83 1012.89 1012.87 1012.78 1012.63 1012.42 1012.15 1011.81 1011.40 1010.91 1010.34 1009.68 1008.93 1008.10 1007.21 1006.28 1005.32 1004.37 1003.46 1002.61 1001.84 1001.19 1000.65 1000.23 999.93 999.73 999.64 999.63 999.68 999.78 999.91 1000.06 1000.22 1000.38 1000.54 1000.69
1010.41 1010.77 1011.15 1011.52 1011.86 1012.16 1012.41 1012.60 1012.73 1012.79 1012.80 1012.74 1012.63 1012.45 1012.22 1011.91 1011.53 1011.07 1010.52 1009.87 1009.14 1008.33 1007.45 1006.52 1005.57 1004.62 1003.70 1002.84 1002.06 1001.37 1000.80 1000.33 999.98 999.74 999.60 999.54 999.56 999.63 999.74 999.89 1000.06 1000.23 1000.41 1000.59
1010.29 1010.70 1011.10 1011.48 1011.83 1012.13 1012.38 1012.57 1012.70 1012.78 1012.80 1012.77 1012.68 1012.53 1012.32 1012.04 1011.68 1011.24 1010.71 1010.09 1009.38 1008.59 1007.74 1006.84 1005.91 1004.99 1004.09 1003.23 1002.45 1001.75 1001.15 1000.65 1000.25 999.96 999.76 999.64 999.60 999.62 999.69 999.80 999.95 1000.12 1000.30 1000.48
1010.09 1010.56 1011.01 1011.42 1011.79 1012.11 1012.38 1012.58 1012.73 1012.83 1012.87 1012.86 1012.79 1012.66 1012.47 1012.21 1011.87 1011.44 1010.93 1010.34 1009.65 1008.90 1008.08 1007.23 1006.35 1005.46 1004.60 1003.78 1003.02 1002.33 1001.71 1001.19 1000.76 1000.41 1000.14 999.96 999.84 999.79 999.80 999.86 999.95 1000.08 1000.24 1000.41
1009.75 1010.28 1010.79 1011.26 1011.68 1012.05 1012.35 1012.60 1012.78 1012.91 1012.98 1013.00 1012.96 1012.85 1012.67 1012.42 1012.09 1011.68 1011.19 1010.61 1009.96 1009.25 1008.48 1007.68 1006.85 1006.03 1005.23 1004.46 1003.74 1003.07 1002.47 1001.94 1001.47 1001.08 1000.76 1000.50 1000.30 1000.17 1000.10 1000.07 1000.10 1000.18 1000.29 1000.43
1009.20 1009.81 1010.40 1010.94 1011.43 1011.86 1012.23 1012.54 1012.79 1012.97 1013.09 1013.15 1013.14 1013.05 1012.90 1012.66 1012.35 1011.95 1011.47 1010.92 1010.30 1009.63 1008.92 1008.18 1007.42 1006.67 1005.94 1005.24 1004.57 1003.94 1003.37 1002.84 1002.36 1001.93 1001.55 1001.22 1000.95 1000.73 1000.57 1000.46 1000.41 1000.41 1000.47 1000.57
Thickness
5717 5723 5719 5711 5708 5704 5691 5683 5667 5664 5657 5647 5646 5643 5638 5632 5625 5621 5616 5608 5601 5594 5587 5582 5577 5573 5570 5568 5565 5563 5560 5557 5556 5556 5555 5554 5552 5552 5552 5550 5551 5554 5558 5562
5710 5717 5714 5701 5699 5694 5688 5679 5670 5659 5651 5650 5645 5640 5633 5626 5620 5612 5604 5599 5593 5587 5582 5577 5573 5570 5566 5562 5559 5556 5553 5552 5552 5551 5550 5549 5548 5547 5546 5544 5544 5544 5545 5548
5697 5710 5708 5681 5686 5679 5672 5665 5656 5642 5638 5639 5632 5628 5620 5614 5608 5600 5597 5595 5590 5584 5578 5574 5569 5565 5559 5555 5552 5547 5544 5544 5544 5543 5543 5542 5542 5540 5538 5538 5538 5537 5537 5539
5688 5688 5680 5683 5695 5684 5668 5654 5653 5646 5638 5632 5625 5622 5617 5609 5602 5597 5594 5589 5584 5578 5573 5568 5562 5555 5548 5543 5538 5533 5530 5529 5529 5530 5530 5530 5529 5529 5529 5529 5529 5530 5532 5534
5676 5674 5679 5684 5684 5677 5664 5650 5647 5640 5635 5632 5627 5620 5612 5606 5598 5590 5586 5581 5575 5569 5563 5555 5546 5537 5529 5523 5517 5512 5509 5508 5508 5509 5510 5512 5513 5515 5516 5516 5518 5520 5525 5528
5676 5671 5664 5670 5680 5681 5666 5644 5644 5639 5632 5626 5616 5600 5599 5601 5593 5588 5581 5575 5568 5562 5553 5541 5529 5518 5508 5501 5495 5491 5490 5490 5490 5490 5492 5494 5497 5501 5503 5505 5508 5511 5515 5520
5670 5663 5667 5673 5677 5666 5636 5629 5639 5635 5625 5616 5604 5597 5599 5596 5590 5583 5576 5569 5561 5550 5538 5526 5514 5502 5492 5484 5478 5474 5470 5471 5473 5474 5476 5479 5483 5486 5489 5493 5497 5501 5506 5512
5663 5655 5654 5672 5665 5646 5636 5639 5635 5630 5624 5615 5608 5601 5595 5588 5582 5577 5570 5562 5552 5541 5530 5518 5504 5492 5484 5475 5469 5461 5457 5456 5458 5461 5464 5470 5472 5474 5478 5482 5486 5491 5496 5504
5669 5663 5671 5671 5660 5653 5645 5638 5635 5628 5623 5615 5607 5599 5590 5582 5576 5570 5563 5555 5547 5535 5524 5511 5496 5483 5474 5468 5459 5452 5447 5447 5449 5452 5456 5459 5462 5465 5468 5473 5478 5484 5490 5498
5677 5675 5672 5667 5663 5658 5653 5645 5639 5631 5622 5613 5602 5594 5584 5576 5570 5565 5560 5552 5541 5530 5518 5506 5493 5480 5470 5463 5455 5448 5444 5444 5445 5447 5450 5453 5456 5459 5462 5467 5472 5479 5486 5493
5673 5675 5673 5667 5662 5658 5652 5644 5636 5628 5620 5609 5598 5588 5578 5570 5566 5562 5557 5547 5536 5524 5513 5502 5491 5481 5472 5463 5455 5448 5444 5444 5445 5445 5447 5449 5452 5454 5458 5464 5470 5476 5483 5489
5666 5669 5663 5659 5661 5656 5647 5639 5631 5622 5613 5604 5594 5583 5573 5566 5563 5560 5553 5543 5532 5522 5511 5501 5491 5482 5474 5466 5458 5451 5447 5445 5444 5444 5445 5446 5448 5452 5457 5462 5469 5474 5480 5487
5681 5678 5670 5667 5661 5653 5645 5637 5629 5619 5608 5599 5590 5580 5570 5564 5562 5557 5550 5540 5531 5521 5511 5502 5492 5485 5479 5471 5463 5456 5450 5446 5445 5445 5446 5445 5447 5451 5457 5464 5469 5475 5480 5484
5688 5682 5672 5666 5656 5651 5644 5636 5627 5616 5607 5597 5587 5578 5569 5563 5560 5555 5547 5539 5531 5522 5513 5505 5496 5490 5483 5476 5470 5463 5456 5451 5448 5447 5448 5448 5451 5454 5459 5465 5471 5475 5478 5482
5688 5682 5670 5665 5656 5649 5641 5632 5622 5611 5603 5595 5585 5576 5568 5563 5559 5552 5546 5541 5533 5525 5518 5510 5503 5496 5490 5484 5479 5472 5464 5456 5452 5452 5453 5454 5456 5459 5464 5470 5475 5479 5480 5481
5685 5679 5670 5660 5652 5645 5637 5628 5617 5608 5599 5590 5581 5574 5568 5563 5558 5553 5548 5543 5537 5530 5524 5517 5510 5504 5499 5495 5491 5485 5477 5472 5467 5462 5462 5463 5465 5468 5471 5476 5481 5482 5484 5485
5678 5670 5664 5654 5648 5640 5633 5625 5616 5606 5595 5586 5578 5573 5568 5563 5559 5555 5550 5545 5539 5535 5529 5522 5517 5513 5509 5505 5501 5497 5493 5487 5484 5476 5473 5474 5476 5479 5482 5486 5489 5489 5488 5488
5680 5671 5662 5654 5643 5636 5630 5622 5613 5604 5593 5584 5577 5571 5566 5561 5556 5552 5549 5547 5546 5543 5538 5531 5526 5522 5520 5516 5512 5508 5504 5501 5496 5492 5490 5489 5489 5490 5492 5493 5493 5492 5490 5489
5675 5665 5657 5650 5642 5634 5626 5619 5610 5601 5592 5583 5576 5569 5563 5558 5554 5550 5548 5547 5547 5546 5543 5539 5536 5534 5532 5528 5525 5520 5515 5512 5508 5506 5504 5504 5502 5501 5501 5501 5498 5496 5494 5493
5668 5661 5653 5646 5640 5633 5625 5618 5609 5599 5590 5582 5575 5569 5563 5559 5554 5549 5547 5547 5545 5542 5541 5542 5544 5545 5544 5541 5538 5533 5529 5524 5519 5516 5515 5514 5512 5511 5510 5509 5505 5502 5501 5501
5661 5655 5649 5642 5637 5631 5624 5616 5605 5595 5587 5580 5572 5566 5561 5556 5551 5546 5545 5547 5547 5545 5545 5547 5550 5552 5552 5551 5550 5548 5544 5539 5533 5528 5524 5521 5519 5517 5516 5516 5514 5512 5511 5511
5655 5648 5643 5638 5632 5626 5618 5609 5599 5591 5584 5577 5570 5565 5559 5555 5551 5545 5541 5539 5540 5542 5545 5549 5553 5554 5555 5558 5561 5561 5559 5555 5549 5541 5535 5531 5528 5525 5524 5523 5523 5523 5522 5521
5647 5642 5637 5633 5627 5620 5611 5601 5593 5586 5579 5573 5567 5561 5555 5550 5546 5542 5539 5537 5537 5540 5544 5548 5550 5553 5557 5562 5564 5566 5567 5566 5562 5556 5550 5545 5541 5537 5535 5534 5534 5533 5532 5532
5639 5635 5632 5628 5622 5613 5603 5593 5586 5579 5573 5568 5561 5556 5551 5546 5543 5538 5533 5532 5533 5536 5541 5544 5547 5551 5555 5559 5562 5565 5566 5567 5568 5567 5564 5560 5554 5550 5547 5545 5543 5542 5542 5542
5634 5629 5625 5620 5613 5605 5595 5585 5579 5572 5566 5559 5553 5549 5546 5542 5538 5535 5533 5530 5530 5532 5537 5540 5542 5546 5549 5553 5557 5561 5563 5564 5566 5569 5571 5570 5566 5562 5558 5555 5553 5552 5551 5551
5629 5622 5616 5612 5605 5596 5586 5577 5570 5563 5558 5552 5546 5542 5540 5538 5536 5533 5531 5528 5527 5529 5532 5534 5537 5540 5543 5547 5552 5556 5559 5561 5564 5566 5569 5572 5574 5573 5570 5567 5565 5563 5562 5562
5626 5617 5608 5600 5594 5588 5580 5571 5563 5555 5551 5545 5539 5536 5534 5533 5531 5528 5526 5525 5523 5524 5526 5529 5531 5534 5537 5541 5546 5550 5552 5555 5557 5559 5562 5568 5572 5575 5575 5575 5574 5573 5571 5570